Regional Weather Roundup
Issued by NWS

Home | Current Version | Previous Version | Text Only | Print | Product List | Glossary Off
Versions: 1 2 3 4 5 6 7 8 9 10 11 12 13 14 15 16 17 18 19 20 21 22 23 24 25 26 27 28 29 30 31 32 33 34 35 36 37 38 39 40 41 42 43 44 45 46 47 48 49 50

000
ASUS43 KLOT 300303
RWRIL

ILLINOIS REGIONAL WEATHER ROUNDUP
NATIONAL WEATHER SERVICE CHICAGO/ROMEOVILLE IL
1000 PM CDT THU SEP 29 2016

NOTE: "FAIR" INDICATES FEW OR NO CLOUDS BELOW 12,000 FEET WITH NO
SIGNIFICANT WEATHER AND/OR OBSTRUCTIONS TO VISIBILITY.

* THESE STATIONS ARE NOT UNDER NWS QUALITY CONTROL. THEY ALSO MAY NOT
  REPORT WEATHER SUCH AS PRECIPITATION OR FOG.

ILZ001-002-007-009-015-016-024-300400-
NORTHWEST ILLINOIS

CITY           SKY/WX    TMP DP  RH WIND       PRES   REMARKS
MOLINE         CLEAR     64  52  64 NE7       30.25F
STERLING*      CLOUDY    63  55  75 NE8       30.25F
$$

ILZ003-004-008-010-011-017-018-300400-
NORTH CENTRAL ILLINOIS

CITY           SKY/WX    TMP DP  RH WIND       PRES   REMARKS
ROCKFORD       MOCLDY    62  55  77 N7        30.27F
FREEPORT*      CLEAR     57  52  81 N5        30.28F
ROCHELLE*      CLOUDY    61  56  83 NE13      30.25F
$$

ILZ005-006-012>014-019>023-300400-
NORTHEAST ILLINOIS

CITY           SKY/WX    TMP DP  RH WIND       PRES   REMARKS
CHICAGO-OHARE  LGT RAIN  62  57  83 NE16G24   30.22S
CHICAGO-MIDWAY RAIN      63  57  81 NE17G28   30.21S
AURORA         MOCLDY    62  58  86 N9        30.22F
LANSING*       LGT RAIN  60  60  98 NE8       30.20F
WAUKEGAN       LGT RAIN  62  57  83 NE10G22   30.24F
DUPAGE AIRPORT CLOUDY    62  56  80 NE13      30.22S
KANKAKEE*      CLOUDY    61  58  88 N9        30.19S
WHEELING       CLOUDY    63  57  81 NE12      30.24F
NORTHERLY ISL    N/A     61  57  87 NE14        N/A
$$

LMZ740>746-300400-
SOUTHERN LAKE MICHIGAN

STATION/POSITION SKY/WX   TEMP    WIND        PRES    VSBY  WAVE
                          AIR SEA DIR/SP/G                  HT/PER
                          (F)     (DEG/KT/KT) (MB)    (MI)  (FT/S)
SOUTHERN BUOY              63 68   60/ 19/ 23 1023.5          6/ 6
WILMETTE HARBOR            61 56   80/ 14/ 17   N/A           6/ 7
HARRISON CRIB              64      40/ 21/ 26   N/A
BURNHAM HARBOR             61      30/ 10/ 17   N/A
CALUMET HARBOR             62      30/ 11/ 15 1022.4F
BURNS HARBOR               62      40/ 20/ 24 1022.7S
MICHIGAN CITY              60      20/ 19/ 19   N/A
MICHIGAN CITY 6N           61 65   40/ 16/ 21   N/A           6/ 7
ST. JOSEPH                 59 59   20/ 12/ 16 1022.6F         4/ 6
$$

ILZ025>027-034>036-040-047-049-050-058-095>099-300400-
WEST-CENTRAL ILLINOIS

CITY           SKY/WX    TMP DP  RH WIND       PRES   REMARKS
QUINCY         MOCLDY    64  55  72 NE15      30.22S
GALESBURG*     CLEAR     60  54  80 N8        30.23F
MACOMB*        PTCLDY    61  55  79 N9        30.25S
$$

ILZ028>032-037-038-041>044-048-051>054-059>061-300400-
CENTRAL ILLINOIS

CITY           SKY/WX    TMP DP  RH WIND       PRES   REMARKS
BLOOMINGTON    CLEAR     59  57  93 N15       30.18F
DECATUR        CLOUDY    61  58  90 N10       30.17R
PEORIA         PTCLDY    61  58  90 NE9       30.21S
LINCOLN*       CLEAR     59  59  98 N7        30.18S
SPRINGFIELD    PTCLDY    60  57  89 N9        30.19S
TAYLORVILLE    NOT AVBL
$$

ILZ033-039-045-046-055>057-062-063-300400-
EAST-CENTRAL ILLINOIS

CITY           SKY/WX    TMP DP  RH WIND       PRES   REMARKS
CHAMPAIGN      PTCLDY    61  57  87 N12       30.15S
MATTOON        PTCLDY    57  54  89 N7        30.13S
$$

ILZ079-100>102-300400-
SOUTHWEST ILLINOIS

CITY           SKY/WX    TMP DP  RH WIND       PRES   REMARKS
ALTON          CLOUDY    59  57  94 N9        30.18S
BELLEVILLE     CLEAR     57  57 100 NW2       30.15S
CAHOKIA*       MOCLDY    62  58  86 N7        30.17S
SPARTA*        CLEAR     58  57  96 NW5       30.16F
$$

ILZ064>066-069>071-074>076-080>082-084>086-088>090-092>094-300400-
SOUTH-CENTRAL ILLINOIS

CITY           SKY/WX    TMP DP  RH WIND       PRES   REMARKS
CARBONDALE     CLEAR     57  57 100 NW7       30.14S
MT. VERNON     CLEAR     57  52  82 CALM      30.14S
CENTRALIA*     PTCLDY    60  60  98 NW6       30.13S
SALEM*         MOCLDY    61  58  90 CALM      30.14S
METROPOLIS*    CLEAR     56  55  96 CALM      30.14S
$$

ILZ067-068-072-073-078-083-087-091-300400-
SOUTHEAST ILLINOIS

CITY           SKY/WX    TMP DP  RH WIND       PRES   REMARKS
LAWRENCEVILLE  CLOUDY    57  55  93 NW3       30.11F
FLORA*         MOCLDY    59  57  93 NW3       30.12F
HARRISBURG*    CLEAR     57  56  98 NW3       30.13S
ROBINSON*      MOCLDY    50  50  99 CALM      30.12F
$$

ABBREVIATIONS USED IN REMARKS
   TC - TEMPERATURE IN CELSIUS
  WCI - WIND CHILL INDEX
   HX - HEAT INDEX
  VSB - VISIBILITY
$$





USA.gov is the U.S. government's official web portal to all federal, state and local government web resources and services.